Location: Lake Taghkanic State Park
(42.0900°N, 73.7201°W)
Time: 11:08:08
(UTC-04:00)

ISS - Visible Passes

Search period start: 20 June 2024 00:00
Search period end: 30 June 2024 00:00
Orbit: 411 x 425 km, 51.6° (Epoch: 20 June)

Date Brightness Start Highest point End Pass type
(mag) Time Alt. Az. Time Alt. Az. Time Alt. Az.
21 Jun -1.2 04:00:17 10° SSE 04:01:38 12° SE 04:03:00 10° ESE visible
23 Jun -2.6 04:00:03 17° SSW 04:02:02 33° SE 04:05:05 10° ENE visible
24 Jun -2.0 03:13:48 19° SE 03:14:07 20° SE 03:16:36 10° E visible
25 Jun -3.8 04:00:22 20° WSW 04:02:31 86° NNW 04:05:52 10° NE visible
26 Jun -3.6 03:13:57 49° S 03:14:25 55° SE 03:17:42 10° ENE visible
27 Jun -2.0 02:27:28 25° E 02:27:28 25° E 02:29:22 10° ENE visible
27 Jun -2.5 04:00:22 13° W 04:03:04 36° NNW 04:06:13 10° NE visible
28 Jun -3.3 03:13:48 36° W 03:14:49 55° NNW 03:18:07 10° NE visible
29 Jun -3.3 02:27:10 58° NE 02:27:10 58° NE 02:29:56 10° NE visible
29 Jun -1.5 04:01:02 10° WNW 04:03:42 22° NNW 04:06:23 10° NE visible
